Time,TemperatureF,DewpointF,PressureIn,WindDirection,WindDirectionDegrees,WindSpeedMPH,WindSpeedGustMPH,Humidity,HourlyPrecipIn,Conditions,Clouds,dailyrainin,SolarRadiationWatts/m^2,SoftwareType,DateUTC
2013-03-25 00:03:00,34.0,29.0,-100.00,West,261,15.0,27.0,82,0.00,,,0.44,0.000000,,2013-03-25 05:03:00,
2013-03-25 00:12:00,34.0,29.0,-100.00,West,261,15.0,27.0,82,0.00,,,0.44,0.000000,,2013-03-25 05:12:00,
2013-03-25 00:42:00,33.0,29.0,-100.00,WSW,258,14.0,28.0,84,0.00,,,0.37,0.000000,,2013-03-25 05:42:00,
2013-03-25 00:52:00,33.0,29.0,-100.00,WSW,258,14.0,28.0,84,0.00,,,0.37,0.000000,,2013-03-25 05:52:00,
2013-03-25 01:02:00,33.0,29.0,-100.00,WSW,258,14.0,28.0,84,0.00,,,0.37,0.000000,,2013-03-25 06:02:00,
2013-03-25 01:12:00,33.0,29.0,-100.00,WSW,258,14.0,28.0,84,0.00,,,0.37,0.000000,,2013-03-25 06:12:00,
2013-03-25 01:42:00,32.0,29.0,-100.00,West,262,14.0,27.0,90,0.00,,,0.31,0.000000,,2013-03-25 06:42:00,
2013-03-25 01:52:00,32.0,29.0,-100.00,West,262,14.0,27.0,90,0.00,,,0.31,0.000000,,2013-03-25 06:52:00,
2013-03-25 02:02:00,32.0,29.0,-100.00,West,262,14.0,27.0,90,0.00,,,0.31,0.000000,,2013-03-25 07:02:00,
2013-03-25 02:12:00,32.0,29.0,-100.00,West,262,14.0,27.0,90,0.00,,,0.31,0.000000,,2013-03-25 07:12:00,
2013-03-25 02:42:00,33.0,29.0,-100.00,West,260,12.0,24.0,86,0.00,,,0.26,0.000000,,2013-03-25 07:42:00,
2013-03-25 02:53:00,33.0,29.0,-100.00,West,260,12.0,24.0,86,0.00,,,0.26,0.000000,,2013-03-25 07:53:00,
2013-03-25 03:02:00,33.0,29.0,-100.00,West,260,12.0,24.0,86,0.00,,,0.26,0.000000,,2013-03-25 08:02:00,
2013-03-25 03:12:00,33.0,29.0,-100.00,West,260,12.0,24.0,86,0.00,,,0.26,0.000000,,2013-03-25 08:12:00,
2013-03-25 03:43:00,32.0,30.0,-100.00,West,259,12.0,24.0,94,0.00,,,0.25,0.000000,,2013-03-25 08:43:00,
2013-03-25 03:52:00,32.0,30.0,-100.00,West,259,12.0,24.0,94,0.00,,,0.25,0.000000,,2013-03-25 08:52:00,
2013-03-25 04:02:00,32.0,30.0,-100.00,West,259,12.0,24.0,94,0.00,,,0.25,0.000000,,2013-03-25 09:02:00,
2013-03-25 04:12:00,32.0,30.0,-100.00,West,259,12.0,24.0,94,0.00,,,0.25,0.000000,,2013-03-25 09:12:00,
2013-03-25 04:43:00,31.0,30.0,-100.00,West,265,10.0,22.0,95,0.00,,,0.25,0.000000,,2013-03-25 09:43:00,
2013-03-25 04:53:00,31.0,30.0,-100.00,West,265,10.0,22.0,95,0.00,,,0.25,0.000000,,2013-03-25 09:53:00,
2013-03-25 05:03:00,31.0,30.0,-100.00,West,265,10.0,22.0,95,0.00,,,0.25,0.000000,,2013-03-25 10:03:00,
2013-03-25 05:12:00,31.0,30.0,-100.00,West,265,10.0,22.0,95,0.00,,,0.25,0.000000,,2013-03-25 10:12:00,
2013-03-25 05:43:00,31.0,30.0,-100.00,WSW,258,11.0,18.0,96,0.00,,,0.25,0.000000,,2013-03-25 10:43:00,
2013-03-25 05:54:00,31.0,30.0,-100.00,WSW,258,11.0,18.0,96,0.00,,,0.25,0.000000,,2013-03-25 10:54:00,
2013-03-25 06:03:00,31.0,30.0,-100.00,WSW,258,11.0,18.0,96,0.00,,,0.25,0.000000,,2013-03-25 11:03:00,
2013-03-25 06:12:00,31.0,30.0,-100.00,WSW,258,11.0,18.0,96,0.00,,,0.25,0.000000,,2013-03-25 11:12:00,
2013-03-25 06:42:00,31.0,30.0,-100.00,West,266,8.0,17.0,97,0.00,,,0.25,0.000000,,2013-03-25 11:42:00,
2013-03-25 06:53:00,31.0,30.0,-100.00,West,266,8.0,17.0,97,0.00,,,0.25,0.000000,,2013-03-25 11:53:00,
2013-03-25 07:02:00,31.0,30.0,-100.00,West,266,8.0,17.0,97,0.00,,,0.25,0.000000,,2013-03-25 12:02:00,
2013-03-25 07:13:00,31.0,30.0,-100.00,West,266,8.0,17.0,97,0.00,,,0.25,0.000000,,2013-03-25 12:13:00,
2013-03-25 07:43:00,31.0,28.0,-100.00,West,264,9.0,13.0,90,0.00,,,0.25,5.000000,,2013-03-25 12:43:00,
2013-03-25 07:53:00,31.0,28.0,-100.00,West,264,9.0,13.0,90,0.00,,,0.25,5.000000,,2013-03-25 12:53:00,
2013-03-25 08:02:00,31.0,28.0,-100.00,West,264,9.0,13.0,90,0.00,,,0.25,5.000000,,2013-03-25 13:02:00,
2013-03-25 08:13:00,31.0,28.0,-100.00,West,264,9.0,13.0,90,0.00,,,0.25,5.000000,,2013-03-25 13:13:00,
2013-03-25 08:43:00,32.0,28.0,-100.00,West,261,11.0,18.0,85,0.00,,,0.25,39.000000,,2013-03-25 13:43:00,
2013-03-25 08:52:00,32.0,28.0,-100.00,West,261,11.0,18.0,85,0.00,,,0.25,39.000000,,2013-03-25 13:52:00,
2013-03-25 09:03:00,32.0,28.0,-100.00,West,261,11.0,18.0,85,0.00,,,0.25,39.000000,,2013-03-25 14:03:00,
2013-03-25 09:12:00,32.0,28.0,-100.00,West,261,11.0,18.0,85,0.00,,,0.25,39.000000,,2013-03-25 14:12:00,
2013-03-25 09:43:00,32.0,27.0,-100.00,West,267,10.0,19.0,83,0.00,,,0.25,65.000000,,2013-03-25 14:43:00,
2013-03-25 09:53:00,32.0,27.0,-100.00,West,267,10.0,19.0,83,0.00,,,0.25,65.000000,,2013-03-25 14:53:00,
2013-03-25 10:02:00,32.0,27.0,-100.00,West,267,10.0,19.0,83,0.00,,,0.25,65.000000,,2013-03-25 15:02:00,
2013-03-25 10:12:00,32.0,27.0,-100.00,West,267,10.0,19.0,83,0.00,,,0.25,65.000000,,2013-03-25 15:12:00,
2013-03-25 10:43:00,33.0,27.0,-100.00,West,267,10.0,19.0,79,0.05,,,0.30,134.000000,,2013-03-25 15:43:00,
2013-03-25 10:53:00,33.0,27.0,-100.00,West,267,10.0,19.0,79,0.05,,,0.30,134.000000,,2013-03-25 15:53:00,
2013-03-25 11:03:00,33.0,27.0,-100.00,West,267,10.0,19.0,79,0.05,,,0.30,134.000000,,2013-03-25 16:03:00,
2013-03-25 11:12:00,33.0,27.0,-100.00,West,267,10.0,19.0,79,0.05,,,0.30,134.000000,,2013-03-25 16:12:00,
2013-03-25 11:43:00,34.0,27.0,-100.00,WSW,258,10.0,22.0,75,0.02,,,0.32,163.000000,,2013-03-25 16:43:00,
2013-03-25 11:53:00,34.0,27.0,-100.00,WSW,258,10.0,22.0,75,0.02,,,0.32,163.000000,,2013-03-25 16:53:00,
2013-03-25 12:02:00,34.0,27.0,-100.00,WSW,258,10.0,22.0,75,0.02,,,0.32,163.000000,,2013-03-25 17:02:00,
2013-03-25 12:12:00,34.0,27.0,-100.00,WSW,258,10.0,22.0,75,0.02,,,0.32,163.000000,,2013-03-25 17:12:00,
2013-03-25 12:43:00,35.0,26.0,-100.00,West,271,11.0,25.0,70,0.00,,,0.25,220.000000,,2013-03-25 17:43:00,
2013-03-25 12:53:00,35.0,26.0,-100.00,West,271,11.0,25.0,70,0.00,,,0.25,220.000000,,2013-03-25 17:53:00,
2013-03-25 13:03:00,35.0,26.0,-100.00,West,271,11.0,25.0,70,0.00,,,0.25,220.000000,,2013-03-25 18:03:00,
2013-03-25 13:12:00,35.0,26.0,-100.00,West,271,11.0,25.0,70,0.00,,,0.25,220.000000,,2013-03-25 18:12:00,
2013-03-25 13:43:00,35.0,26.0,-100.00,West,263,13.0,25.0,70,0.00,,,0.11,201.000000,,2013-03-25 18:43:00,
2013-03-25 13:53:00,35.0,26.0,-100.00,West,263,13.0,25.0,70,0.00,,,0.11,201.000000,,2013-03-25 18:53:00,
2013-03-25 14:03:00,35.0,26.0,-100.00,West,263,13.0,25.0,70,0.00,,,0.11,201.000000,,2013-03-25 19:03:00,
2013-03-25 14:12:00,35.0,26.0,-100.00,West,263,13.0,25.0,70,0.00,,,0.11,201.000000,,2013-03-25 19:12:00,
2013-03-25 14:43:00,35.0,28.0,-100.00,West,271,10.0,25.0,76,0.00,,,0.09,195.000000,,2013-03-25 19:43:00,
2013-03-25 14:53:00,35.0,28.0,-100.00,West,271,10.0,25.0,76,0.00,,,0.09,195.000000,,2013-03-25 19:53:00,
2013-03-25 15:02:00,35.0,28.0,-100.00,West,271,10.0,25.0,76,0.00,,,0.09,195.000000,,2013-03-25 20:02:00,
2013-03-25 15:12:00,35.0,28.0,-100.00,West,271,10.0,25.0,76,0.00,,,0.09,195.000000,,2013-03-25 20:12:00,
2013-03-25 15:42:00,35.0,28.0,-100.00,West,269,12.0,21.0,75,0.00,,,0.09,220.000000,,2013-03-25 20:42:00,
2013-03-25 15:52:00,35.0,28.0,-100.00,West,269,12.0,21.0,75,0.00,,,0.09,220.000000,,2013-03-25 20:52:00,
2013-03-25 16:02:00,35.0,28.0,-100.00,West,269,12.0,21.0,75,0.00,,,0.09,220.000000,,2013-03-25 21:02:00,
2013-03-25 16:12:00,35.0,28.0,-100.00,West,269,12.0,21.0,75,0.00,,,0.09,220.000000,,2013-03-25 21:12:00,
2013-03-25 16:43:00,36.0,29.0,-100.00,West,262,11.0,24.0,74,0.00,,,0.09,222.000000,,2013-03-25 21:43:00,
2013-03-25 16:52:00,36.0,29.0,-100.00,West,262,11.0,24.0,74,0.00,,,0.09,222.000000,,2013-03-25 21:52:00,
2013-03-25 17:03:00,36.0,29.0,-100.00,West,262,11.0,24.0,74,0.00,,,0.09,222.000000,,2013-03-25 22:03:00,
2013-03-25 17:12:00,36.0,29.0,-100.00,West,262,11.0,24.0,74,0.00,,,0.09,222.000000,,2013-03-25 22:12:00,
2013-03-25 17:43:00,35.0,28.0,-100.00,WNW,282,10.0,21.0,75,0.00,,,0.09,138.000000,,2013-03-25 22:43:00,
2013-03-25 17:52:00,35.0,28.0,-100.00,WNW,282,10.0,21.0,75,0.00,,,0.09,138.000000,,2013-03-25 22:52:00,
2013-03-25 18:03:00,35.0,28.0,-100.00,WNW,282,10.0,21.0,75,0.00,,,0.09,138.000000,,2013-03-25 23:03:00,
2013-03-25 18:12:00,35.0,28.0,-100.00,WNW,282,10.0,21.0,75,0.00,,,0.09,138.000000,,2013-03-25 23:12:00,
2013-03-25 18:43:00,35.0,28.0,-100.00,WNW,289,8.0,21.0,74,0.00,,,0.09,64.000000,,2013-03-25 23:43:00,
2013-03-25 18:53:00,35.0,28.0,-100.00,WNW,289,8.0,21.0,74,0.00,,,0.09,64.000000,,2013-03-25 23:53:00,
2013-03-25 19:02:00,35.0,28.0,-100.00,WNW,289,8.0,21.0,74,0.00,,,0.09,64.000000,,2013-03-26 00:02:00,
2013-03-25 19:12:00,35.0,28.0,-100.00,WNW,289,8.0,21.0,74,0.00,,,0.09,64.000000,,2013-03-26 00:12:00,
2013-03-25 19:43:00,32.0,32.0,-100.00,West,276,5.0,17.0,99,0.00,,,0.08,9.000000,,2013-03-26 00:43:00,
2013-03-25 19:52:00,32.0,32.0,-100.00,West,276,5.0,17.0,99,0.00,,,0.08,9.000000,,2013-03-26 00:52:00,
2013-03-25 20:02:00,32.0,32.0,-100.00,West,276,5.0,17.0,99,0.00,,,0.08,9.000000,,2013-03-26 01:02:00,
2013-03-25 20:12:00,32.0,32.0,-100.00,West,276,5.0,17.0,99,0.00,,,0.08,9.000000,,2013-03-26 01:12:00,
2013-03-25 20:42:00,31.0,31.0,-100.00,West,273,4.0,10.0,98,0.00,,,0.07,0.000000,,2013-03-26 01:42:00,
2013-03-25 20:52:00,31.0,31.0,-100.00,West,273,4.0,10.0,98,0.00,,,0.07,0.000000,,2013-03-26 01:52:00,
2013-03-25 21:02:00,31.0,31.0,-100.00,West,273,4.0,10.0,98,0.00,,,0.07,0.000000,,2013-03-26 02:02:00,
2013-03-25 21:12:00,31.0,31.0,-100.00,West,273,4.0,10.0,98,0.00,,,0.07,0.000000,,2013-03-26 02:12:00,
2013-03-25 21:43:00,32.0,31.0,-100.00,WNW,284,4.0,10.0,96,0.00,,,0.07,0.000000,,2013-03-26 02:43:00,
2013-03-25 21:52:00,32.0,31.0,-100.00,WNW,284,4.0,10.0,96,0.00,,,0.07,0.000000,,2013-03-26 02:52:00,
2013-03-25 22:02:00,32.0,31.0,-100.00,WNW,284,4.0,10.0,96,0.00,,,0.07,0.000000,,2013-03-26 03:02:00,
2013-03-25 22:12:00,32.0,31.0,-100.00,WNW,284,4.0,10.0,96,0.00,,,0.07,0.000000,,2013-03-26 03:12:00,
2013-03-25 22:43:00,32.0,30.0,-100.00,WNW,290,6.0,11.0,93,0.00,,,0.07,0.000000,,2013-03-26 03:43:00,
2013-03-25 22:53:00,32.0,30.0,-100.00,WNW,290,6.0,11.0,93,0.00,,,0.07,0.000000,,2013-03-26 03:53:00,
2013-03-25 23:03:00,32.0,30.0,-100.00,WNW,290,6.0,11.0,93,0.00,,,0.07,0.000000,,2013-03-26 04:03:00,
2013-03-25 23:12:00,32.0,30.0,-100.00,WNW,290,6.0,11.0,93,0.00,,,0.07,0.000000,,2013-03-26 04:12:00,
2013-03-25 23:43:00,31.0,29.0,-100.00,WNW,295,4.0,13.0,93,0.00,,,0.07,0.000000,,2013-03-26 04:43:00,
2013-03-25 23:53:00,31.0,29.0,-100.00,WNW,295,4.0,13.0,93,0.00,,,0.07,0.000000,,2013-03-26 04:53:00,